LOT53P EPWA-EPBY

Flight info

Callsign LOT53P
Flight time 0h 35m
Altitude 18000
Route OLILA L621 SOMOR DCT BIBKA DCT INTUN
Aircraft B738/M-SDE2E3FGHIRWXY/LB1

Departure

Time 2026-05-01 11:40
Airport Warsaw Chopin Airport (EPWA)

Arrival

Time 2026-05-01 12:16
Airport Ignacy Jan Paderewski Bydgoszcz Airport (EPBY)
Time Latitude Longitude Altitude Speed Heading
2026-05-01 11:20 52.17377 20.97051 335 ft 0 kts 242°
2026-05-01 11:26 52.17390 20.97100 333 ft 2 kts 256°
2026-05-01 11:26 52.17393 20.97127 331 ft 2 kts 277°
2026-05-01 11:27 52.17387 20.97152 332 ft 2 kts 317°
2026-05-01 11:27 52.17377 20.97163 331 ft 1 kts 334°
2026-05-01 11:31 52.17382 20.97159 331 ft 3 kts 332°
2026-05-01 11:32 52.17417 20.97128 332 ft 8 kts 332°
2026-05-01 11:32 52.17473 20.97079 335 ft 9 kts 332°
2026-05-01 11:32 52.17529 20.97031 334 ft 9 kts 332°
2026-05-01 11:32 52.17584 20.96983 333 ft 9 kts 332°
2026-05-01 11:33 52.17634 20.96937 334 ft 4 kts 315°
2026-05-01 11:33 52.17632 20.96926 334 ft 1 kts 252°
2026-05-01 11:33 52.17626 20.96897 333 ft 4 kts 247°
2026-05-01 11:33 52.17602 20.96834 334 ft 9 kts 237°
2026-05-01 11:34 52.17566 20.96740 335 ft 11 kts 239°
2026-05-01 11:34 52.17526 20.96629 333 ft 12 kts 239°
2026-05-01 11:34 52.17486 20.96570 333 ft 4 kts 184°
2026-05-01 11:34 52.17453 20.96583 334 ft 6 kts 151°
2026-05-01 11:35 52.17412 20.96618 333 ft 9 kts 152°
2026-05-01 11:35 52.17345 20.96676 334 ft 12 kts 152°
2026-05-01 11:35 52.17261 20.96750 332 ft 15 kts 152°
2026-05-01 11:35 52.17167 20.96834 333 ft 16 kts 151°
2026-05-01 11:36 52.17065 20.96922 332 ft 17 kts 152°
2026-05-01 11:36 52.16995 20.96984 333 ft 18 kts 151°
2026-05-01 11:36 52.16883 20.97081 333 ft 19 kts 152°
2026-05-01 11:36 52.16766 20.97184 334 ft 18 kts 152°
2026-05-01 11:37 52.16641 20.97293 334 ft 14 kts 152°
2026-05-01 11:37 52.16571 20.97382 335 ft 13 kts 119°
2026-05-01 11:37 52.16545 20.97473 333 ft 14 kts 114°
2026-05-01 11:37 52.16505 20.97618 334 ft 15 kts 114°
2026-05-01 11:38 52.16461 20.97773 335 ft 12 kts 115°
2026-05-01 11:38 52.16431 20.97810 335 ft 4 kts 184°
2026-05-01 11:38 52.16396 20.97796 336 ft 7 kts 207°
2026-05-01 11:38 52.16346 20.97755 336 ft 8 kts 206°
2026-05-01 11:39 52.16302 20.97702 332 ft 8 kts 252°
2026-05-01 11:39 52.16311 20.97649 335 ft 1 kts 296°
2026-05-01 11:39 52.16332 20.97576 332 ft 29 kts 295°
2026-05-01 11:39 52.16544 20.96823 335 ft 114 kts 294°
2026-05-01 11:40 52.16957 20.95335 620 ft 159 kts 298°
2026-05-01 11:40 52.17425 20.93637 1465 ft 171 kts 297°
2026-05-01 11:40 52.17913 20.91853 2496 ft 178 kts 297°
2026-05-01 11:40 52.18617 20.90034 3041 ft 205 kts 322°
2026-05-01 11:41 52.19955 20.88936 3477 ft 224 kts 340°
2026-05-01 11:41 52.21473 20.87999 4074 ft 246 kts 338°
2026-05-01 11:41 52.22887 20.86356 5036 ft 255 kts 315°
2026-05-01 11:41 52.24062 20.84218 6066 ft 258 kts 316°
2026-05-01 11:42 52.25202 20.82217 6997 ft 261 kts 317°
2026-05-01 11:42 52.26565 20.80263 7958 ft 259 kts 334°
2026-05-01 11:42 52.28247 20.79310 8945 ft 257 kts 351°
2026-05-01 11:42 52.30016 20.78777 9907 ft 260 kts 353°
2026-05-01 11:43 52.31813 20.78248 10753 ft 267 kts 353°
2026-05-01 11:43 52.33707 20.77683 11018 ft 293 kts 352°
2026-05-01 11:43 52.35794 20.77371 11475 ft 306 kts
2026-05-01 11:44 52.40074 20.77953 13263 ft 311 kts
2026-05-01 11:44 52.42248 20.78271 14163 ft 313 kts
2026-05-01 11:44 52.44402 20.78551 15021 ft 313 kts
2026-05-01 11:44 52.46566 20.78800 16029 ft 309 kts
2026-05-01 11:45 52.48320 20.78441 16826 ft 314 kts 348°
2026-05-01 11:45 52.49900 20.77367 17571 ft 319 kts 338°
2026-05-01 11:45 52.51715 20.75157 18093 ft 331 kts 319°
2026-05-01 11:45 52.53149 20.72205 18326 ft 340 kts 314°
2026-05-01 11:46 52.54544 20.69014 18315 ft 343 kts 313°
2026-05-01 11:46 52.55912 20.65820 18318 ft 340 kts 313°
2026-05-01 11:46 52.57283 20.62667 18319 ft 338 kts 313°
2026-05-01 11:46 52.58659 20.59546 18313 ft 337 kts 313°
2026-05-01 11:47 52.59944 20.56645 18318 ft 336 kts 314°
2026-05-01 11:47 52.61306 20.53572 18317 ft 336 kts 314°
2026-05-01 11:47 52.62682 20.50461 18318 ft 336 kts 314°
2026-05-01 11:47 52.64062 20.47338 18316 ft 337 kts 314°
2026-05-01 11:48 52.65447 20.44201 18319 ft 338 kts 313°
2026-05-01 11:48 52.66833 20.41055 18322 ft 339 kts 313°
2026-05-01 11:48 52.68205 20.37940 18323 ft 340 kts 313°
2026-05-01 11:48 52.69594 20.34778 18308 ft 341 kts 313°
2026-05-01 11:49 52.71016 20.31651 18314 ft 338 kts 317°
2026-05-01 11:49 52.72561 20.28734 18323 ft 336 kts 320°
2026-05-01 11:49 52.74147 20.25896 18323 ft 336 kts 320°
2026-05-01 11:49 52.75719 20.23085 18311 ft 336 kts 320°
2026-05-01 11:50 52.77296 20.20223 18312 ft 336 kts 320°
2026-05-01 11:50 52.78863 20.17347 18315 ft 336 kts 319°
2026-05-01 11:50 52.80419 20.14473 18322 ft 335 kts 319°
2026-05-01 11:50 52.81964 20.11562 18313 ft 336 kts 318°
2026-05-01 11:51 52.83452 20.08637 18314 ft 336 kts 317°
2026-05-01 11:51 52.84947 20.05658 18311 ft 336 kts 317°
2026-05-01 11:51 52.86439 20.02676 18309 ft 336 kts 317°
2026-05-01 11:51 52.87934 19.99690 18328 ft 336 kts 317°
2026-05-01 11:52 52.89428 19.96710 18316 ft 336 kts 317°
2026-05-01 11:52 52.90830 19.93914 18328 ft 336 kts 317°
2026-05-01 11:52 52.92324 19.90935 18333 ft 336 kts 317°
2026-05-01 11:52 52.93802 19.87987 18321 ft 336 kts 317°
2026-05-01 11:53 52.95296 19.85004 18331 ft 336 kts 317°
2026-05-01 11:53 52.96791 19.82015 18331 ft 336 kts 317°
2026-05-01 11:53 52.98286 19.79025 18329 ft 336 kts 317°
2026-05-01 11:53 52.99758 19.76075 18316 ft 336 kts 317°
2026-05-01 11:54 53.01248 19.73089 18325 ft 335 kts 317°
2026-05-01 11:54 53.02731 19.70111 18326 ft 335 kts 317°
2026-05-01 11:54 53.04070 19.67418 18326 ft 335 kts 317°
2026-05-01 11:54 53.05544 19.64449 18312 ft 327 kts 317°
2026-05-01 11:55 53.07008 19.61666 18319 ft 316 kts 321°
2026-05-01 11:55 53.08537 19.58994 17896 ft 318 kts 322°
2026-05-01 11:55 53.10048 19.56458 18131 ft 303 kts 323°
2026-05-01 11:55 53.11557 19.53954 18227 ft 308 kts 323°
2026-05-01 11:56 53.13068 19.51434 18292 ft 312 kts 322°
2026-05-01 11:56 53.14573 19.48889 18321 ft 302 kts 322°
2026-05-01 11:56 53.16015 19.46428 18311 ft 289 kts 322°
2026-05-01 11:56 53.17387 19.44080 18314 ft 276 kts 323°
2026-05-01 11:57 53.18673 19.41865 18305 ft 263 kts 322°
2026-05-01 11:57 53.19906 19.39716 18322 ft 249 kts 323°
2026-05-01 11:57 53.21096 19.37683 18323 ft 240 kts 324°
2026-05-01 11:57 53.22157 19.35497 18314 ft 254 kts 303°
2026-05-01 11:58 53.22508 19.32436 18363 ft 287 kts 275°
2026-05-01 11:58 53.22283 19.29033 18358 ft 298 kts 269°
2026-05-01 11:58 53.21600 19.22212 18325 ft 296 kts 268°
2026-05-01 11:59 53.21264 19.18845 18328 ft 293 kts 268°
2026-05-01 11:59 53.20944 19.15536 18331 ft 291 kts 269°
2026-05-01 11:59 53.20628 19.12189 18334 ft 290 kts 269°
2026-05-01 12:00 53.20012 19.05551 18329 ft 289 kts 269°
2026-05-01 12:00 53.19707 19.02237 18343 ft 289 kts 269°
2026-05-01 12:00 53.19094 18.95620 18312 ft 290 kts 269°
2026-05-01 12:01 53.18792 18.92290 18081 ft 290 kts 269°
2026-05-01 12:01 53.18492 18.88935 17694 ft 294 kts 269°
2026-05-01 12:01 53.18190 18.85539 17207 ft 300 kts 268°
2026-05-01 12:01 53.17880 18.82027 16240 ft 322 kts 268°
2026-05-01 12:02 53.17539 18.78218 15511 ft 337 kts 266°
2026-05-01 12:02 53.17183 18.74346 15183 ft 336 kts 266°
2026-05-01 12:02 53.16834 18.70521 15048 ft 327 kts 268°
2026-05-01 12:02 53.16841 18.66838 14889 ft 310 kts 283°
2026-05-01 12:03 53.17093 18.63342 14630 ft 306 kts 284°
2026-05-01 12:03 53.17365 18.59839 14342 ft 305 kts 283°
2026-05-01 12:03 53.17627 18.56322 14069 ft 303 kts 283°
2026-05-01 12:03 53.17870 18.52837 13735 ft 303 kts 282°
2026-05-01 12:04 53.18073 18.49833 13244 ft 307 kts 282°
2026-05-01 12:04 53.18319 18.46186 12329 ft 326 kts 281°
2026-05-01 12:04 53.18481 18.42332 11509 ft 340 kts 278°
2026-05-01 12:04 53.18947 18.38547 10664 ft 335 kts 297°
2026-05-01 12:05 53.20159 18.35286 9832 ft 329 kts 315°
2026-05-01 12:05 53.23886 18.31435 8109 ft 319 kts 348°
2026-05-01 12:05 53.26072 18.31175 7526 ft 310 kts
2026-05-01 12:06 53.28088 18.32067 7298 ft 292 kts 24°
2026-05-01 12:06 53.29717 18.33830 7193 ft 275 kts 40°
2026-05-01 12:06 53.30920 18.36203 7092 ft 261 kts 55°
2026-05-01 12:06 53.31735 18.38857 6957 ft 250 kts 64°
2026-05-01 12:07 53.32215 18.41582 6849 ft 239 kts 77°
2026-05-01 12:07 53.32239 18.44311 6746 ft 232 kts 90°
2026-05-01 12:07 53.31981 18.46949 6497 ft 234 kts 105°
2026-05-01 12:07 53.31175 18.49357 6036 ft 246 kts 122°
2026-05-01 12:08 53.30004 18.51531 5567 ft 256 kts 135°
2026-05-01 12:08 53.28532 18.53275 5231 ft 259 kts 149°
2026-05-01 12:08 53.26893 18.54353 5140 ft 251 kts 165°
2026-05-01 12:08 53.25187 18.54629 4983 ft 244 kts 189°
2026-05-01 12:09 53.23701 18.53504 4978 ft 232 kts 222°
2026-05-01 12:09 53.22588 18.51486 5030 ft 248 kts 235°
2026-05-01 12:09 53.21503 18.49033 4955 ft 276 kts 237°
2026-05-01 12:09 53.20356 18.46374 4609 ft 282 kts 237°
2026-05-01 12:10 53.19221 18.43761 4335 ft 276 kts 236°
2026-05-01 12:10 53.17033 18.38785 4124 ft 257 kts 235°
2026-05-01 12:10 53.15987 18.36463 4012 ft 250 kts 234°
2026-05-01 12:11 53.13962 18.31925 3771 ft 241 kts 234°
2026-05-01 12:11 53.12953 18.29666 3508 ft 243 kts 234°
2026-05-01 12:11 53.12063 18.27300 3234 ft 240 kts 256°
2026-05-01 12:12 53.11926 18.24652 3147 ft 220 kts 271°
2026-05-01 12:12 53.11760 18.22238 2914 ft 204 kts 262°
2026-05-01 12:12 53.11556 18.19948 2673 ft 197 kts 265°
2026-05-01 12:12 53.11360 18.17750 2462 ft 187 kts 263°
2026-05-01 12:13 53.11189 18.15666 2190 ft 175 kts 265°
2026-05-01 12:13 53.11025 18.13643 1874 ft 177 kts 264°
2026-05-01 12:13 53.10864 18.11808 1854 ft 150 kts 264°
2026-05-01 12:13 53.10698 18.10152 1590 ft 141 kts 265°
2026-05-01 12:14 53.10576 18.08509 1402 ft 142 kts 266°
2026-05-01 12:14 53.10446 18.06884 1235 ft 141 kts 264°
2026-05-01 12:14 53.10304 18.05252 994 ft 146 kts 265°
2026-05-01 12:14 53.10164 18.03549 788 ft 150 kts 264°
2026-05-01 12:15 53.10017 18.01795 588 ft 157 kts 263°
2026-05-01 12:15 53.09867 17.99998 365 ft 153 kts 263°
2026-05-01 12:15 53.09728 17.98334 243 ft 133 kts 261°
2026-05-01 12:15 53.09623 17.97092 243 ft 69 kts 261°
2026-05-01 12:16 53.09581 17.96600 244 ft 38 kts 263°
2026-05-01 12:16 53.09551 17.96230 243 ft 31 kts 262°
2026-05-01 12:16 53.09493 17.95966 243 ft 16 kts 208°
2026-05-01 12:16 53.09428 17.95967 243 ft 8 kts 171°
2026-05-01 12:17 53.09375 17.95981 244 ft 8 kts 171°
2026-05-01 12:17 53.09328 17.95991 244 ft 7 kts 173°
2026-05-01 12:17 53.09285 17.96014 244 ft 7 kts 137°
2026-05-01 12:17 53.09278 17.96086 244 ft 7 kts 86°
2026-05-01 12:18 53.09285 17.96179 244 ft 9 kts 82°
2026-05-01 12:18 53.09295 17.96302 244 ft 13 kts 82°
2026-05-01 12:18 53.09309 17.96465 244 ft 16 kts 82°
2026-05-01 12:18 53.09325 17.96657 243 ft 17 kts 82°
2026-05-01 12:19 53.09341 17.96849 243 ft 17 kts 82°
2026-05-01 12:19 53.09357 17.97035 243 ft 16 kts 82°
2026-05-01 12:19 53.09372 17.97214 243 ft 15 kts 82°
2026-05-01 12:19 53.09387 17.97386 243 ft 15 kts 82°
2026-05-01 12:20 53.09400 17.97549 243 ft 14 kts 82°
2026-05-01 12:20 53.09413 17.97703 243 ft 13 kts 82°
2026-05-01 12:20 53.09426 17.97857 243 ft 13 kts 82°
2026-05-01 12:20 53.09438 17.98004 243 ft 13 kts 82°
2026-05-01 12:21 53.09450 17.98147 243 ft 12 kts 82°
2026-05-01 12:21 53.09462 17.98286 243 ft 12 kts 83°
2026-05-01 12:21 53.09473 17.98421 243 ft 12 kts 81°
2026-05-01 12:21 53.09485 17.98558 243 ft 12 kts 82°
2026-05-01 12:22 53.09497 17.98703 243 ft 14 kts 82°
2026-05-01 12:22 53.09506 17.98813 243 ft 15 kts 83°
2026-05-01 12:22 53.09526 17.99057 243 ft 17 kts 82°
2026-05-01 12:22 53.09543 17.99250 242 ft 17 kts 82°
2026-05-01 12:23 53.09559 17.99445 242 ft 16 kts 82°
2026-05-01 12:23 53.09574 17.99622 242 ft 15 kts 82°
2026-05-01 12:23 53.09587 17.99745 242 ft 3 kts 59°
2026-05-01 12:23 53.09609 17.99753 242 ft 3 kts 344°
2026-05-01 12:24 53.09619 17.99722 242 ft 3 kts 268°
2026-05-01 12:24 53.09610 17.99680 242 ft 4 kts 232°
2026-05-01 12:24 53.09583 17.99671 242 ft 4 kts 171°
2026-05-01 12:24 53.09545 17.99681 242 ft 7 kts 171°
2026-05-01 12:25 53.09487 17.99696 242 ft 9 kts 172°
2026-05-01 12:25 53.09459 17.99701 242 ft 0 kts 174°